Showing default

SES 10, 42432

Orbit data source: Space-Track

SES 10, 42432 is a payload satellite owned by SES Sat. Leasing (LU) in GEO that was launched on Thu, 30 Mar 2017 UTC via an FALCON 9 launch vehicle from the Air Force Eastern Test Range (AFETR). Payloads include a variety of satellites, spacecraft, and rockets equipped with specific instruments for various scientific and technological missions. These include communications satellites like Starlink; space stations such as the ISS; scientific satellites like the Hubble; Earth observation satellites from companies like Planet Labs, Umbra, and HawkEye 360; GPS; miniature CubeSats for education and research; and military/defense satellites.

Loading next visibility...
SES 10 details
Identifier
42432, 2017-017A
Orbit
GEO
Last TLE update10 hours ago
Origin
Flag of LUSES Sat. Leasing (LU / SES)
ManufacturerADS/Bremen
MissionOperational Commercial Communications
Bus & MotorEUROSTAR 3000, R-4D-15
Mass5,300 kg wet, ~3,000 kg dry
Launch date (UTC)
2017-03-30 (8 years ago)
Launch vehicle
FALCON 9
Launch site
Air Force Eastern Test Range (AFETR)
Object type
Payload
Rocket body
Debris
Shape & HBRBox + 2 Pan, 35 m
Radar Cross Section56.564 m², Large (>1 m²)

Expand to show TLE details & history

TLE from 10 hours ago
0 SES 10
1 42432U 17017A   24361.23032521 -.00000244  00000-0  00000-0 0  9996
2 42432   0.0187  35.8709 0002486 244.9011 190.4587  1.00269472 28359
Epoch: 2024-12-26T05:31Z
Definitive object data (Epoch: 2024-12-26T05:31:40.098Z)
Latitude0.03586°
Longitude-66.91188°
Altitude35,797.077 km
Speed3.074 km/s
True Right ascension07h 24m 52s
True Declination0° 02' 09"
Sunlit
Object was in daylight at TLE epoch
Visualization TLE readout
Latitude-0.03047°
Longitude77.73097°
Altitude35,777.224 km
Speed3.075 km/s
Apparent Right ascension17h 21m 31s
Apparent Declination-6° 04' 50"
Sunlit
Object is in daylight
Visualization observer readout
Local Sidereal Time14:30:39
Azimuth129.193° SE
Elevation29.497°
Doppler factor1
Orbital elements
Apogee altitude35,798.796 km
Perigee altitude35,777.831 km
Semi-major axis42,166.451 km
Eccentricity0.0002486
Inclination0.0187°
RAAN35.8709°
Arg. of periapsis244.9011°
True anomaly190.45353°
Mean anomaly190.4587°
Eccentric anomaly190.45612°
Mean motion0.25066 °/min
BSTARUnknown
Orbital period1436.18 mins
Loading historical data...
42432 neighbors
Authenticating...
Loading maneuver chart data...
Loading historical data...
Loading historical data...
Loading historical data...
Loading historical data...
Loading historical data...
Loading historical data...
Loading historical data...
Other satellites on launch #17 in the year 2017 (2017-03-30 UTC)

SES 10 Visibility forecast

Observer location: undefined°, undefined

Span
Click to sort rows by Start time (UTC) header in descending order
Start Az.
Max El. time (UTC)
Max El. Az.
Max El.
End time (UTC)
End Az.
1440 mins2024-12-26 15:08:42.080Z129.207° SE2024-12-27 07:35:42.080Z129.173° SE26.255°2024-12-27 15:08:42.080Z129.218° SE
|